www.pogodaiklimat.ru

ПОГОДА в Эврике, AK

  • Прогноз погоды в Эврике
  • Монитор погоды в Эврике
  • Климат в Эврике

АРХИВ ПОГОДЫ в Эврике

Время (UTC), дата Ветер
(напр.,м/с)
 
Видим.   Явления Облачность Т
(С)
Тd
(С)
f
(%)
Тe
(С)
Тes
(С)
Комфортность

P
(гПа)

Po
(гПа)
Тmin
(С)
Tmax
(С)
R
(мм)
SD
(см)
22:56 13.05 В  16 км    ясно  +7.8  -10.6  26  +5  +12    1013.6  895.3  +2.2  +8.9     
23:56 13.05 ЮВ  16 км    ясно  +7.8  -10.0  27  +5  +12    1013.4  895.3         
00:56 14.05 ЮВ  16 км    2/0 2850 м
[средняя] 
+7.8  -8.3  31  +6  +10    1013.3  895.0         
01:56 14.05 Ю  16 км    2/0 3000 м
[средняя] 
+7.2  -7.2  35  +4  +7    1013.2  895.0         
02:56 14.05 ЮЗ  16 км    ясно  +7.2  -5.0  42  +5  +7    1013.2  895.0         
03:56 14.05 ЮЗ  16 км    8/0 2700 м
[средняя] 
+6.1  -4.4  47  +3  +3    1013.2  895.3         
04:56 14.05 ЮЗ  16 км    ясно  +3.9  -3.9  57  0  +1    1013.6  895.3  +3.9  +8.3     
05:56 14.05 ЮЗ  16 км    8/0 3300 м
[средняя] 
+1.7  -3.3  69  -3  -3    1013.8  895.6         
06:56 14.05 ЮЗ  16 км    ясно  +0.6  -3.9  72  -5  -5    1013.8  895.3         
07:56 14.05 ЮЗ  16 км    ясно  +0.6  -3.3  75  -5  -5    1013.7  895.3         
08:56 14.05 ЮЗ  16 км    ясно  0.0  -2.8  81  -6  -6    1013.4  895.3         
09:56 14.05 ЮЗ  16 км    2/0 3600 м
[средняя] 
-0.6  -2.8  85  -7  -7    1013.6  895.6         
10:56 14.05   16 км    10/0 2700 м
[средняя] 
0.0  -3.3  78  -1  -1    1013.8  895.6  -1.1  +3.9     
11:56 14.05 СЗ  16 км    10/0 3000 м
[средняя] 
+0.6  -4.4  69  -4  -4    1012.7  895.0         
12:56 14.05 С  16 км    ясно  +1.1  -5.6  61  -2  -2    1013.0  895.0         
13:56 14.05 С  16 км    ясно  +0.6  -5.6  63  -3  -3    1013.2  895.0         
14:56 14.05 СВ  16 км    ясно  +2.8  -5.0  56  -1  -1    1012.9  895.3         
15:56 14.05 С  16 км    ясно  +3.9  -5.0  52  -0  +1    1012.8  895.0         
16:56 14.05 СВ  16 км    ясно  +6.1  -5.0  45  +4  +7    1012.6  895.0  -0.6  +6.1     
01:56 15.05 ЮВ  16 км    ясно  +10.0  -6.7  30  +8  +12    1011.6  894.1         
03:56 15.05   16 км    8/0 3000 м
[средняя] 
+8.9  -6.1  34  +9  +10    1011.2  894.1         
05:56 15.05 СВ  16 км    2/0 3600 м
[средняя] 
+5.6  -5.6  44  +4  +4    1011.0  893.8         
09:56 15.05 ЮЗ  16 км    ясно  +1.7  -5.6  58  -3  -3    1010.8  893.8         
16:56 15.05 Ю  16 км    2/0 2550 м
[средняя] 
+9.4  -5.0  36  +9  +13    1009.1  892.6  +1.1  +9.4     
19:56 15.05 ЮВ  16 км    ясно  +12.8  -5.0  29  +12  +19    1008.1  892.0         
02:56 16.05 Ю  16 км    8/0 2250 м
[средняя] 
+10.0  -2.8  41  +8  +9    1007.5  891.4         
17:53 16.05   16 км  слабый дождь  10/10 90 м  +3.0  +2.0  93  +2  +2      887.5         
17:56 16.05   16 км  слабый дождь  10/10 90 м  +2.8  +1.7  92  +2  +2    1004.4  887.5         
19:22 16.05 С  16 км    10/10 420 м  +4.0  +1.0  81  +2  +2      886.9         
20:21 16.05 СВ  16 км    10/8 510 м
[средняя] 
+5.0  +1.0  75  +1  +1      886.6         
21:56 16.05 СВ  16 км    5/5 960 м  +7.2  -1.1  56  +4  +9    1002.6  886.3         
00:56 17.05 Ю  4
{8} 
16 км    8/8 1470 м  +8.9  -4.4  39  +6  +7    1002.0  885.7         
12:15 17.05 С  3 км  дымка  8/8 30 м  -1.0  -2.0  93  -7  -7      886.3         
14:56 17.05 С  2 км  дымка  10/10 90 м  +0.6  0.0  96  -4  -4    1003.6  886.9         
15:56 17.05 нст  16 км    10/10 90 м  +1.7  +0.6  92  -1  -1    1003.7  886.9         
17:12 17.05 СВ  16 км    5/5 330 м  +4.0  0.0  75  +2  +5      886.9         
23:56 17.05 ЮВ  4
{7} 
16 км    ясно  +10.6  -6.7  29  +9  +15    1004.3  887.5         
05:56 18.05 ЮЗ  16 км    ясно  +3.3  -3.3  62  -1  -1    1006.3  889.3         
09:56 18.05 ЮЗ  16 км    ясно  +1.1  -3.3  72  -4  -4    1008.0  891.1         
13:56 18.05 ЮЗ  16 км    5/0 3000 м
[средняя] 
0.0  -1.7  88  -6  -5    1008.5  891.4         
00:56 19.05 С  6
{9} 
16 км    5/0 2100 м
[средняя] 
+9.4  +0.6  54  +6  +7    1010.4  892.9         
10:56 19.05 С  16 км    ясно  +1.1  -0.6  88  -3  -3    1011.5  893.8  +1.1  +5.0     
06:56 20.05 С  16 км    2/0 3300 м
[средняя] 
+5.0  +0.6  73  +2  +2    1006.7  890.2         
16:56 20.05 ЮВ  6
{9} 
16 км    ясно  +7.2  -3.3  47  +3  +4    1009.1  892.3  +2.2  +7.8  0.3   
03:56 21.05 В  16 км    ясно  +10.0  -9.4  24  +10  +12    1011.7  894.7         
08:56 21.05 ЮЗ  16 км    ясно  +1.7  -3.9  66  -3  -3    1015.5  897.7         
15:56 21.05 ЮЗ  16 км    ясно  +6.1  -2.8  53  +4  +6    1017.0  899.5         
07:56 22.05 ЮЗ  16 км    8/0 2550 м
[средняя] 
+5.0  +2.2  82  -0  -0    1020.1  902.5         

 

Местоположение метеостанции Skelton Airport: широта 61.9333 долгота -147.1667 высота над уровнем моря 1002 м.

В архиве по умолчанию представлена погода в Эврике за последние 1-2 суток. Обновление информации о фактической погоде в базе происходит ежечасно! Архивные данные за месяц целиком и за предыдущие месяцы Вы можете получить, выбрав интересующий диапазон дат из раскрывающегося списка и нажав кнопку "Ввод!".

Внимание! Архив погоды МЕТАР в базе сайта хранится не более 60 дней. Нет смысла пытаться выбрать более раннюю дату.

Внимание! Время в таблицах - всемирное. Для получения местного времени необходимо прибавить поправку, которая в Эврике равна -9 ч.

Ветер - указаны скорость ветра в м/с и направление, откуда дует ветер: С - северный, СВ - северо-восточный, В - восточный, ЮВ - юго-восточный, Ю - южный, ЮЗ - юго-западный, З - западный, СЗ - северо-западный.
Видимость - горизонтальная дальность видимости в метрах или километрах. При видимости от 1 до 10 км при отсутствии осадков обычно наблюдается дымка, при ухудшении видимости до 1 км и менее - туман. В сухую погоду видимость может ухудшаться дымом, пылью или мглою.
Атмосферные явления - указаны явления, наблюдавшиеся в указанный момент времени.
Облачность - указаны через наклонную черту верхняя и нижняя облачность в баллах и высота нижней границы облаков в метрах. Внимание: облачность, как и прочие метеорологические величины в США измеряются автоматическими метеостанциями. Указанные значения в баллах носят условный характер и показывают процент времени, в течение которого, в среднем, лазерный луч высотомера отражался от облаков обратно.
T - Температура воздуха - температура, измеренная на высоте 2 м над землей.
Td - Температура точки росы - температура, при понижении до которой содержащийся в воздухе водяной пар достигнет насыщения.
f - Относительная влажность воздуха - влажноcть воздуха, измеренная на высоте 2 м над землей.
Te - Эффективная температура - температура, которую ощущает одетый по сезону человек в тени. Характеристика душности погоды. При расчете учитывается влияние влажности воздуха и скорости ветра на теплоощущения человека.
Tes - Эффективная температура на солнце - температура, которую ощущает человек, с поправкой на солнечный нагрев. Характеристика знойности погоды. Зависит от высоты солнца над горизонтом, облачности и скорости ветра. Ночью, в пасмурную погоду, а также при ветре 12 м/с и более поправка равна нулю.
P - Атмосферное давление - приведенное к уровню моря атмосферное давление.
Po - Атмосферное давление - измеренное на уровне метеостанции атмосферное давление.
Tmin - Минимальная температура - минимум температуры воздуха на высоте 2 м над землей.
Tmax - Максимальная температура - максимум температуры воздуха на высоте 2 м над землей.
R - Количество осадков - Количество выпавших осадков за 3 или 6 часов, мм.
SD - Снежный покров - Высота снежного покрова, см.